This is the latest recevied weather packets stored in our database for station/object K0NV. If no packets are shown the sender has not sent any weather packets the latest 10 day(s).
| Time | Temp. | Humidity | Pressure | Rain* | Wind** | Luminosity | Snow |
|---|---|---|---|---|---|---|---|
| 1777553062 | 8.89° C | 83% | 1019.8 hPa | 0 mm | - | 87 W/m² | - |
| 1777552757 | 8.89° C | 83% | 1020.1 hPa | 0 mm | - | 79 W/m² | - |
| 1777552453 | 8.89° C | 84% | 1020.1 hPa | 0 mm | - | 84 W/m² | - |
| 1777552149 | 8.89° C | 83% | 1019.9 hPa | 0 mm | - | 55 W/m² | - |
| 1777551847 | 8.89° C | 82% | 1020.2 hPa | 0 mm | - | 72 W/m² | - |
| 1777551544 | 8.89° C | 83% | 1020.2 hPa | 0 mm | - | 69 W/m² | - |
| 1777551241 | 8.33° C | 84% | 1020.2 hPa | 0 mm | - | 60 W/m² | - |
| 1777550937 | 8.33° C | 84% | 1020.2 hPa | 0 mm | - | 48 W/m² | - |
| 1777550635 | 7.78° C | 85% | 1019.9 hPa | 0 mm | - | 49 W/m² | - |
| 1777550330 | 7.78° C | 87% | 1020 hPa | 0 mm | - | 41 W/m² | - |
| 1777550027 | 7.22° C | 89% | 1019.7 hPa | 0 mm | - | 39 W/m² | - |
| 1777549724 | 6.67° C | 91% | 1019.7 hPa | 0 mm | - | 30 W/m² | - |
| 1777549418 | 6.67° C | 92% | 1019.3 hPa | 0 mm | - | 24 W/m² | - |
| 1777549116 | 6.67° C | 92% | 1019.7 hPa | 0 mm | - | 16 W/m² | - |
| 1777548812 | 6.67° C | 92% | 1019.3 hPa | 0 mm | - | 11 W/m² | - |
| 1777548510 | 6.67° C | 92% | 1019.5 hPa | 0 mm | - | 6 W/m² | - |
| 1777548206 | 6.67° C | 92% | 1019.3 hPa | 0 mm | - | 4 W/m² | - |
| 1777547902 | 6.67° C | 92% | 1019.7 hPa | 0 mm | - | 1 W/m² | - |
| 1777547598 | 6.67° C | 92% | 1019.6 hPa | 0 mm | - | 0 W/m² | - |
| 1777547296 | 6.67° C | 92% | 1019.2 hPa | 0 mm | - | 0 W/m² | - |
| 1777546993 | 6.67° C | 91% | 1019.5 hPa | 0 mm | - | 0 W/m² | - |
| 1777546690 | 6.67° C | 91% | 1019.6 hPa | 0 mm | - | 0 W/m² | - |
| 1777546387 | 6.67° C | 91% | 1019.3 hPa | 0 mm | - | 0 W/m² | - |
| 1777546084 | 6.67° C | 90% | 1019.5 hPa | 0 mm | - | 0 W/m² | - |
| 1777545779 | 6.67° C | 91% | 1019.7 hPa | 0 mm | - | 0 W/m² | - |
* Rain latest hour (hover to see other rain measurements)
** Current wind speed in m/s (hover to see current wind gust speed)